Total_Precipitation_Accumulation
2.36 2.65 2.80 3.03 3.32 3.54 3.72 3.96 4.32 4.41 4.13 4.03 3.91 3.75 3.38 3.20 2.90 2.60 2.29 2.19 2.17 2.31 2.65 2.43 2.63 2.61 2.65 2.64 2.69 2.94 2.98 2.72 2.80 2.64 2.13 1.61 1.27 1.23 1.26 1.28 1.32 1.22 1.27
2.19 2.46 2.47 2.71 2.91 3.34 3.78 4.05 4.02 3.88 3.58 3.57 3.76 3.94 3.87 3.44 2.89 2.59 2.42 2.13 2.05 2.13 2.28 2.38 2.28 2.36 2.42 2.42 2.48 2.69 2.59 2.31 2.50 2.59 2.49 1.84 1.46 1.13 0.94 1.21 1.27 1.23 1.39
1.76 2.07 2.10 2.17 2.36 2.79 3.22 3.29 3.12 3.01 2.82 2.77 2.98 3.13 3.34 3.18 2.83 2.51 2.30 2.10 1.99 1.95 2.01 2.10 2.12 2.15 2.08 2.15 2.32 2.32 2.29 2.14 2.14 2.33 2.51 2.10 1.64 1.32 0.96 0.87 0.98 1.18 1.33
1.60 1.72 1.79 1.83 1.85 1.93 2.15 2.27 2.31 2.34 2.34 2.31 2.45 2.57 2.71 2.67 2.56 2.48 2.22 1.97 1.75 1.69 1.71 1.72 1.74 1.81 1.83 1.99 1.87 1.90 2.09 2.13 1.98 2.07 2.09 2.02 1.97 1.80 1.27 0.94 0.90 1.11 1.20
1.33 1.41 1.48 1.50 1.51 1.56 1.75 1.90 2.04 2.16 2.27 2.22 2.24 2.40 2.63 2.56 2.35 2.17 2.01 1.88 1.72 1.58 1.51 1.55 1.53 1.53 1.55 1.67 1.69 1.88 1.92 1.96 1.92 1.88 1.86 1.94 1.94 1.80 1.57 1.21 1.09 1.07 0.97
1.09 1.26 1.34 1.38 1.37 1.39 1.55 1.70 1.81 1.84 1.91 1.96 1.93 1.92 2.00 2.03 1.90 1.76 1.69 1.59 1.44 1.37 1.37 1.38 1.37 1.37 1.41 1.54 1.59 1.62 1.63 1.68 1.72 1.68 1.67 1.76 1.70 1.62 1.68 1.42 1.29 1.25 1.04
0.89 1.02 1.20 1.23 1.33 1.38 1.44 1.49 1.53 1.51 1.46 1.47 1.37 1.31 1.38 1.52 1.52 1.47 1.47 1.41 1.24 1.12 1.09 1.15 1.19 1.19 1.26 1.39 1.44 1.40 1.41 1.47 1.52 1.49 1.54 1.62 1.58 1.57 1.70 1.73 1.56 1.45 1.20
0.64 0.72 0.86 0.97 1.05 1.16 1.21 1.23 1.23 1.23 1.22 1.22 1.24 1.17 1.15 1.24 1.30 1.39 1.35 1.29 1.13 1.00 0.98 1.00 1.04 1.10 1.13 1.18 1.34 1.37 1.37 1.41 1.45 1.43 1.62 1.60 1.47 1.49 1.61 1.78 1.92 1.80 1.51
0.59 0.61 0.69 0.76 0.75 0.82 0.88 0.90 0.96 1.06 1.13 1.11 1.13 1.06 1.03 1.13 1.22 1.27 1.31 1.32 1.28 1.18 1.13 1.08 1.07 1.13 1.20 1.26 1.35 1.41 1.41 1.47 1.52 1.59 1.70 1.61 1.47 1.44 1.52 1.77 1.97 2.07 1.85
0.52 0.52 0.51 0.52 0.50 0.60 0.76 0.81 0.97 1.03 0.99 0.93 0.86 0.82 0.89 1.06 1.18 1.15 1.10 1.20 1.25 1.24 1.21 1.18 1.13 1.11 1.14 1.24 1.33 1.43 1.45 1.51 1.60 1.64 1.72 1.75 1.65 1.65 1.67 1.80 1.96 2.10 2.12
0.48 0.46 0.48 0.47 0.45 0.50 0.67 0.70 0.77 0.92 0.93 0.84 0.77 0.73 0.74 0.82 0.93 0.96 0.93 0.97 1.02 1.09 1.05 1.01 0.97 0.95 0.94 0.96 1.05 1.11 1.17 1.23 1.32 1.35 1.46 1.61 1.75 1.75 1.76 1.81 1.86 1.99 2.14
0.40 0.35 0.38 0.44 0.49 0.63 0.69 0.63 0.63 0.67 0.77 0.77 0.73 0.72 0.71 0.67 0.65 0.66 0.73 0.75 0.78 0.82 0.78 0.76 0.75 0.72 0.70 0.71 0.74 0.80 0.92 1.03 1.12 1.20 1.25 1.25 1.33 1.43 1.51 1.61 1.75 1.87 2.07
0.42 0.38 0.41 0.45 0.48 0.63 0.75 0.66 0.62 0.63 0.71 0.72 0.71 0.72 0.71 0.66 0.57 0.54 0.59 0.63 0.60 0.59 0.58 0.62 0.65 0.60 0.61 0.64 0.67 0.74 0.84 0.91 0.96 1.00 1.01 0.95 0.99 1.07 1.19 1.27 1.43 1.62 1.89
0.35 0.36 0.42 0.55 0.58 0.55 0.64 0.61 0.58 0.62 0.68 0.76 0.85 0.82 0.72 0.66 0.61 0.57 0.56 0.56 0.53 0.52 0.52 0.56 0.58 0.58 0.63 0.70 0.80 0.89 0.89 0.89 0.84 0.77 0.73 0.73 0.83 0.91 1.02 1.14 1.20 1.34 1.56
0.33 0.34 0.40 0.52 0.60 0.59 0.60 0.56 0.58 0.61 0.62 0.71 0.81 0.80 0.76 0.72 0.70 0.64 0.54 0.54 0.53 0.48 0.50 0.59 0.64 0.66 0.68 0.65 0.71 0.79 0.80 0.82 0.79 0.70 0.60 0.55 0.62 0.69 0.78 0.84 1.01 1.16 1.35
0.39 0.38 0.34 0.35 0.43 0.49 0.50 0.49 0.49 0.51 0.56 0.59 0.65 0.73 0.76 0.70 0.65 0.58 0.51 0.50 0.49 0.52 0.54 0.56 0.59 0.58 0.49 0.48 0.53 0.61 0.65 0.66 0.69 0.66 0.56 0.47 0.46 0.52 0.59 0.69 0.77 0.89 1.05
0.29 0.28 0.26 0.26 0.27 0.28 0.33 0.45 0.45 0.43 0.50 0.58 0.61 0.67 0.71 0.66 0.58 0.49 0.49 0.47 0.48 0.54 0.61 0.59 0.56 0.55 0.53 0.47 0.45 0.45 0.52 0.56 0.56 0.59 0.62 0.51 0.42 0.48 0.53 0.58 0.57 0.66 0.77
0.20 0.19 0.17 0.17 0.18 0.17 0.21 0.30 0.39 0.47 0.50 0.57 0.62 0.65 0.64 0.64 0.60 0.57 0.55 0.57 0.58 0.59 0.64 0.63 0.58 0.61 0.57 0.43 0.39 0.41 0.43 0.49 0.51 0.53 0.55 0.58 0.59 0.54 0.51 0.60 0.61 0.56 0.58
0.20 0.21 0.20 0.17 0.20 0.23 0.27 0.38 0.50 0.55 0.58 0.61 0.67 0.68 0.70 0.76 0.76 0.68 0.64 0.65 0.69 0.65 0.65 0.65 0.60 0.59 0.58 0.44 0.35 0.35 0.38 0.45 0.49 0.50 0.48 0.49 0.56 0.55 0.45 0.50 0.56 0.57 0.57
0.21 0.20 0.21 0.21 0.23 0.29 0.40 0.51 0.65 0.74 0.75 0.70 0.69 0.75 0.78 0.85 0.91 0.89 0.82 0.77 0.79 0.72 0.69 0.66 0.64 0.61 0.62 0.51 0.36 0.35 0.40 0.47 0.51 0.57 0.54 0.44 0.39 0.39 0.37 0.47 0.55 0.57 0.56
0.24 0.23 0.25 0.28 0.31 0.35 0.44 0.59 0.69 0.77 0.81 0.80 0.79 0.88 0.95 1.03 1.10 1.16 1.13 1.07 0.99 0.93 0.89 0.82 0.81 0.79 0.73 0.61 0.44 0.41 0.46 0.55 0.61 0.62 0.59 0.54 0.39 0.34 0.33 0.41 0.53 0.57 0.61
0.24 0.28 0.35 0.40 0.36 0.36 0.47 0.60 0.68 0.74 0.84 0.86 0.92 0.99 1.11 1.11 1.16 1.42 1.45 1.43 1.34 1.16 1.08 1.02 0.98 0.96 0.92 0.75 0.58 0.48 0.51 0.61 0.71 0.73 0.70 0.66 0.48 0.41 0.39 0.37 0.42 0.47 0.49
0.25 0.30 0.40 0.48 0.54 0.58 0.66 0.76 0.78 0.82 0.90 1.00 1.10 1.14 1.20 1.32 1.39 1.50 1.54 1.54 1.51 1.38 1.25 1.19 1.10 1.09 1.09 0.98 0.71 0.61 0.59 0.66 0.72 0.77 0.75 0.64 0.53 0.48 0.45 0.42 0.46 0.49 0.51
0.30 0.31 0.38 0.56 0.72 0.81 0.82 0.83 0.89 0.99 1.11 1.23 1.32 1.38 1.42 1.42 1.47 1.58 1.59 1.57 1.54 1.48 1.40 1.35 1.27 1.24 1.30 1.22 1.07 0.95 0.86 0.87 0.88 0.85 0.82 0.70 0.59 0.55 0.55 0.51 0.50 0.54 0.61
0.36 0.41 0.49 0.60 0.68 0.80 0.95 1.03 1.15 1.29 1.36 1.39 1.41 1.43 1.49 1.57 1.64 1.63 1.61 1.61 1.60 1.50 1.48 1.48 1.48 1.43 1.42 1.28 1.16 1.11 1.09 1.14 1.16 1.10 1.07 1.04 0.94 0.84 0.83 0.81 0.80 0.79 0.80
0.39 0.48 0.60 0.73 0.81 0.96 1.11 1.18 1.30 1.48 1.63 1.62 1.55 1.57 1.60 1.66 1.71 1.69 1.61 1.52 1.42 1.31 1.24 1.25 1.25 1.23 1.23 1.19 1.07 1.06 1.11 1.18 1.19 1.17 1.19 1.25 1.25 1.16 1.12 1.06 1.00 0.96 0.93